KPDXKMMV

Guest
Details From KPDX - Portland Intl
To KMMV - Mc Minnville Muni
Flight Number -
Tags Generated
Created
Modified
Stats Distance 32 nm / 59 km
Max Altitude 0 ft / 0 m
Waypoints 2
Social Downloads 0
Likes 0
Share VATSIM

Download

Looking for another format? Having issues loading an existing format? Contact us
Advertisement - Login to hide

Notes

Generated

Route

KPDX KMMV

ID Type Via Altitude Latitude Longitude Leg Dist Tot Dist Heading (true) Name
O KPDX APT - 0 ft / 0 m 45.58243˚ -122.61681˚ - 0 nm - -
O KMMV APT - 0 ft / 0 m 45.19929˚ -123.13106˚ 31 nm 31 nm 223° / 223° -

Altitude Profile

Advertisement - Login to hide

KPDX

Details ICAO KPDX (PDX)
Name PORTLAND INTL
Region United States
Timezone America/Los_Angeles (UTC-7.0)
Stats Elevation 30 ft / 9 m (AMSL)
Location 45.588839° -122.597259°
Runways 3
Magnetic Variation 15.238° E

METAR

KPDX 201153Z 33004KT 10SM BKN027 OVC035 13/09 A3001 RMK AO2 SLP162 T01330089 10144 20133 53005

Decode

TAF

TAF KPDX 201120Z 2012/2112 VRB03KT P6SM OVC025 FM201800 29005KT P6SM BKN025 FM202100 VRB05KT P6SM BKN040 FM211000 VRB04KT P6SM OVC025

Decode

Departure Runways

ID Width Length Bearing (true) Bearing (mag) Surface Threshold Offset Overrun Length
03 150 ft / 46 m 6,994 ft / 2,132 m 44.93° 29.69° Asphalt 0 ft / 0 m 0 ft / 0 m
10L 150 ft / 46 m 7,986 ft / 2,434 m 119.11° 103.87° Asphalt 0 ft / 0 m 0 ft / 0 m
10R 150 ft / 46 m 10,980 ft / 3,347 m 119.09° 103.85° Asphalt 0 ft / 0 m 0 ft / 0 m
21 150 ft / 46 m 6,994 ft / 2,132 m 224.94° 209.70° Asphalt 680 ft / 207 m 0 ft / 0 m
28L 150 ft / 46 m 10,980 ft / 3,347 m 299.12° 283.88° Asphalt 0 ft / 0 m 1,000 ft / 305 m
28R 150 ft / 46 m 7,986 ft / 2,434 m 299.13° 283.89° Asphalt 0 ft / 0 m 0 ft / 0 m

KMMV

Details ICAO KMMV (MMV)
Name MC MINNVILLE MUNI
Region United States
Timezone America/Los_Angeles (UTC-7.0)
Stats Elevation 163 ft / 50 m (AMSL)
Location 45.194348° -123.135667°
Runways 2
Magnetic Variation 15.236° E

METAR

KMMV 201153Z AUTO 24004KT 10SM OVC020 10/08 A3002 RMK AO2 SLP163 T01000083 10106 20094 53005

Decode

TAF

Not found

Destination Runways

ID Width Length Bearing (true) Bearing (mag) Surface Threshold Offset Overrun Length
04 151 ft / 46 m 5,411 ft / 1,649 m 57.10° 41.86° Asphalt 0 ft / 0 m 1,001 ft / 305 m
17 151 ft / 46 m 4,680 ft / 1,427 m 185.87° 170.63° Asphalt 0 ft / 0 m 0 ft / 0 m
22 151 ft / 46 m 5,411 ft / 1,649 m 237.12° 221.88° Asphalt 0 ft / 0 m 0 ft / 0 m
35 151 ft / 46 m 4,680 ft / 1,427 m 5.87° 350.63° Asphalt 0 ft / 0 m 0 ft / 0 m

Approach Navaids

Runway Type Ident Frequency Range Bearing (true) Bearing (mag) Slope Elevation
22 Localiser IMMV 110.90 MHz 18 nm / 33 km 237.09° 221.86° - 158 ft / 48 m (AMSL)
22 Glidescope IMMV 110.90 MHz 10 nm / 19 km 237.11° 221.87° 3.00° 160 ft / 49 m (AMSL)